sat.trackr.live / text

‹ back to catalog

ONEWEB-0165

NORAD 48233 · 2021-031Z

PAYLOAD ACTIVE UNKNOWN

§ Identity

Operator
Country
UK
Launch date
2021-04-25
Launch site
VOSTO
Launch vehicle
Mass (kg)
RCS (m²)

Purposes: comms

External: N2YO · Heavens-Above · Gunter

§ Orbital elements

Epoch: 2026-09-13T00:59:44.578752Z

Period
109.55 min
Inclination
87.8901°
Eccentricity
0.0001628
Mean motion
13.14501699 rev/d
Perigee alt
1,204.6 km
Apogee alt
1,207.0 km
Semi-major
7,583.9 km
B*
6.9321e-4
RAAN
272.1919°
Arg perigee
83.5423°
Mean anomaly
276.5892°
Rev number
25,990

§ Raw data

ONEWEB-01651 48233U 21031Z   26256.04148818  .00000270  00000+0  69321-3 0  99942 48233  87.8901 272.1919 0001628  83.5423 276.5892 13.14501699259901

JSON: /api/v1/satellites/48233 · /tle

For live sub-satellite position, see the globe view (requires WebGL).

§ Visibility from observer

Set your observer location to see the next 7 days of passes ≥ 10°. The values pass through the URL so the page stays shareable.

No JS? Fill the form by hand. The geolocation button needs JavaScript.